Galliano, LA

3:21 AM CST on November 22, 2017 (GMT -0600)
Galliano

Weather History for KGAO - April, 2013

Change the Weather History Date:

Saturday, April 20, 2013

  Actual Average (KHUM) Record (KHUM)
Temperature  
Mean Temperature 56 °F -  
Max Temperature 66 °F 79 °F 88 °F (1987)
Min Temperature 47 °F 60 °F 43 °F (1953)
Degree Days  
Heating Degree Days 8    
Growing Degree Days 6 (Base 50)    
Moisture  
Dew Point 44 °F    
Average Humidity 61    
Maximum Humidity 97    
Minimum Humidity 42    
Precipitation  
Precipitation 0.00 in - - ()
Sea Level Pressure  
Sea Level Pressure 30.20 in    
Wind  
Wind Speed 10 mph (NNE)    
Max Wind Speed 17 mph    
Max Gust Speed 24 mph    
Visibility 10 miles    
Events      
Averages and records for this station are not official NWS values.
T = Trace of Precipitation, MM = Missing Value Source: NWS Daily Summary

Daily Weather History Graph

Daily Weather History Graph

Search for Another Location

Airport or City:

Trip Planner

Search our weather history database for the weather conditions in past years. The results will help you decide how hot, cold, wet, or windy it might be!

Date:

Astronomy

Apr. 20, 2013 Rise Set
Actual Time 6:29 AM CDT 7:30 PM CDT
Civil Twilight 6:04 AM CDT 7:55 PM CDT
Nautical Twilight 5:35 AM CDT 8:24 PM CDT
Astronomical Twilight 5:05 AM CDT 8:54 PM CDT
Moon 2:37 PM CDT (4/20) 2:54 AM CDT (4/20)
Length of Visible Light 13h 51m
Length of Day
13h 01m
Waxing Gibbous, 71% of the Moon is Illuminated
Apr 20
Waxing Gibbous
Apr 25
Full
May 2
Last Quarter
May 9
New
May 17
First Quarter

Hourly Weather History & Observations

Time (CDT) Temp. Dew Point Humidity Pressure Visibility Wind Dir Wind Speed Gust Speed Precip Events Conditions
12:15 AM 47.7 °F 46.4 °F 95% 30.19 in 10.0 mi WNW 6.9 mph - N/A   Unknown
12:35 AM 47.3 °F 45.7 °F 94% 30.19 in 10.0 mi NW 3.5 mph - N/A   Unknown
12:55 AM 48.0 °F 45.9 °F 92% 30.19 in 10.0 mi WNW 4.6 mph - N/A   Unknown
1:35 AM 49.5 °F 46.9 °F 91% 30.20 in 10.0 mi North 9.2 mph - N/A   Unknown
1:55 AM 54.0 °F 45.7 °F 74% 30.19 in 10.0 mi North 11.5 mph 17.3 mph N/A   Unknown
2:15 AM 54.0 °F 45.9 °F 74% 30.19 in 10.0 mi North 6.9 mph - N/A   Unknown
2:35 AM 54.0 °F 45.5 °F 73% 30.19 in 10.0 mi North 10.4 mph - N/A   Unknown
2:55 AM 54.3 °F 45.0 °F 71% 30.19 in 10.0 mi North 8.1 mph 16.1 mph N/A   Unknown
3:15 AM 54.5 °F 42.1 °F 63% 30.19 in 10.0 mi North 15.0 mph - N/A   Unknown
3:35 AM 54.7 °F 41.9 °F 62% 30.19 in 10.0 mi North 13.8 mph 18.4 mph N/A   Unknown
3:55 AM 54.9 °F 41.4 °F 60% 30.19 in 10.0 mi North 15.0 mph 21.9 mph N/A   Unknown
4:15 AM 54.7 °F 41.2 °F 60% 30.19 in 10.0 mi North 13.8 mph 20.7 mph N/A   Unknown
4:35 AM 54.0 °F 43.9 °F 69% 30.20 in 10.0 mi NNE 10.4 mph - N/A   Unknown
4:55 AM 54.0 °F 42.8 °F 66% 30.19 in 10.0 mi NNE 11.5 mph - N/A   Unknown
5:15 AM 54.0 °F 41.9 °F 64% 30.20 in 10.0 mi NNE 11.5 mph - N/A   Unknown
5:35 AM 53.6 °F 42.1 °F 65% 30.20 in 10.0 mi NNE 9.2 mph - N/A   Unknown
5:55 AM 53.6 °F 41.7 °F 64% 30.20 in 10.0 mi NNE 11.5 mph 16.1 mph N/A   Unknown
6:15 AM 53.2 °F 41.5 °F 65% 30.21 in 10.0 mi NNE 9.2 mph - N/A   Unknown
6:35 AM 52.9 °F 41.9 °F 66% 30.21 in 10.0 mi NNE 10.4 mph - N/A   Unknown
6:55 AM 53.6 °F 40.6 °F 62% 30.22 in 10.0 mi NNE 10.4 mph - N/A   Unknown
7:15 AM 54.5 °F 42.1 °F 63% 30.23 in 10.0 mi NNE 11.5 mph - N/A   Unknown
7:35 AM 55.4 °F 42.1 °F 61% 30.23 in 10.0 mi NNE 10.4 mph 17.3 mph N/A   Unknown
7:55 AM 55.9 °F 42.6 °F 61% 30.24 in 10.0 mi NNE 12.7 mph 17.3 mph N/A   Unknown
8:15 AM 56.7 °F 43.3 °F 61% 30.24 in 10.0 mi NE 11.5 mph 16.1 mph N/A   Unknown
8:35 AM 57.2 °F 44.4 °F 62% 30.25 in 10.0 mi NNE 11.5 mph 16.1 mph N/A   Unknown
8:55 AM 58.1 °F 43.0 °F 57% 30.25 in 10.0 mi NNE 15.0 mph 20.7 mph N/A   Unknown
9:15 AM 58.6 °F 42.3 °F 55% 30.26 in 10.0 mi NE 13.8 mph 19.6 mph N/A   Unknown
9:35 AM 59.4 °F 41.5 °F 52% 30.26 in 10.0 mi NNE 17.3 mph 23.0 mph N/A   Unknown
9:55 AM 59.9 °F 41.2 °F 50% 30.27 in 10.0 mi NNE 12.7 mph 23.0 mph N/A   Unknown
10:15 AM 60.6 °F 39.7 °F 46% 30.27 in 10.0 mi NNE 15.0 mph 23.0 mph N/A   Unknown
10:35 AM 60.8 °F 40.1 °F 46% 30.26 in 10.0 mi NNE 15.0 mph 21.9 mph N/A   Unknown
10:55 AM 61.3 °F 40.1 °F 46% 30.26 in 10.0 mi NNE 16.1 mph 23.0 mph N/A   Unknown
11:15 AM 62.1 °F 40.6 °F 45% 30.25 in 10.0 mi NNE 17.3 mph 23.0 mph N/A   Unknown
11:35 AM 62.4 °F 40.6 °F 45% 30.25 in 10.0 mi NNE 16.1 mph 24.2 mph N/A   Unknown
11:55 AM 63.1 °F 42.3 °F 46% 30.24 in 10.0 mi NE 13.8 mph 18.4 mph N/A   Unknown
12:15 PM 63.5 °F 41.4 °F 44% 30.24 in 10.0 mi NNE 13.8 mph 21.9 mph N/A   Unknown
12:35 PM 64.4 °F 41.5 °F 43% 30.23 in 10.0 mi NE 15.0 mph 23.0 mph N/A   Unknown
12:55 PM 65.3 °F 43.3 °F 45% 30.22 in 10.0 mi NNE 12.7 mph 19.6 mph N/A   Unknown
1:15 PM 64.6 °F 42.4 °F 44% 30.22 in 10.0 mi NE 15.0 mph 21.9 mph N/A   Unknown
1:35 PM 64.9 °F 43.7 °F 46% 30.21 in 10.0 mi NNE 15.0 mph 20.7 mph N/A   Unknown
1:55 PM 65.1 °F 42.3 °F 43% 30.20 in 10.0 mi NNE 16.1 mph 20.7 mph N/A   Unknown
2:15 PM 65.5 °F 43.3 °F 45% 30.19 in 10.0 mi NNE 13.8 mph 20.7 mph N/A   Unknown
2:35 PM 65.5 °F 43.3 °F 45% 30.18 in 10.0 mi NNE 16.1 mph 23.0 mph N/A   Unknown
2:55 PM 65.3 °F 42.6 °F 44% 30.17 in 10.0 mi NNE 13.8 mph 19.6 mph N/A   Unknown
3:15 PM 65.8 °F 43.0 °F 43% 30.17 in 10.0 mi NNE 12.7 mph 19.6 mph N/A   Unknown
3:35 PM 65.5 °F 42.8 °F 44% 30.17 in 10.0 mi NE 15.0 mph 18.4 mph N/A   Unknown
3:55 PM 65.5 °F 43.2 °F 44% 30.16 in 10.0 mi NE 9.2 mph 18.4 mph N/A   Unknown
4:15 PM 65.7 °F 42.4 °F 43% 30.16 in 10.0 mi NE 10.4 mph 17.3 mph N/A   Unknown
4:35 PM 66.0 °F 43.5 °F 44% 30.15 in 10.0 mi NE 10.4 mph 17.3 mph N/A   Unknown
4:55 PM 65.7 °F 43.2 °F 44% 30.15 in 10.0 mi NNE 11.5 mph 17.3 mph N/A   Unknown
5:15 PM 65.8 °F 42.6 °F 43% 30.14 in 10.0 mi NE 9.2 mph 16.1 mph N/A   Unknown
5:35 PM 65.7 °F 41.9 °F 42% 30.14 in 10.0 mi NNE 11.5 mph 17.3 mph N/A   Unknown
5:55 PM 65.7 °F 43.3 °F 44% 30.14 in 10.0 mi NE 6.9 mph - N/A   Unknown
6:15 PM 65.3 °F 44.2 °F 46% 30.14 in 10.0 mi ENE 4.6 mph - N/A   Unknown
6:35 PM 64.6 °F 45.0 °F 49% 30.14 in 10.0 mi NE 4.6 mph - N/A   Unknown
6:55 PM 63.7 °F 46.0 °F 53% 30.14 in 10.0 mi ENE 5.8 mph - N/A   Unknown
7:15 PM 61.9 °F 45.9 °F 56% 30.14 in 10.0 mi East 5.8 mph - N/A   Unknown
7:35 PM 60.6 °F 45.9 °F 58% 30.15 in 10.0 mi East 5.8 mph - N/A   Unknown
7:55 PM 59.4 °F 46.9 °F 63% 30.16 in 10.0 mi ENE 3.5 mph - N/A   Unknown
8:15 PM 60.1 °F 47.3 °F 63% 30.16 in 10.0 mi ENE 3.5 mph - N/A   Unknown
8:35 PM 58.6 °F 47.8 °F 67% 30.16 in 10.0 mi ENE 4.6 mph - N/A   Unknown
8:55 PM 58.1 °F 48.9 °F 71% 30.17 in 10.0 mi East 3.5 mph - N/A   Unknown
9:15 PM 57.2 °F 50.0 °F 77% 30.17 in 10.0 mi East 3.5 mph - N/A   Unknown
9:35 PM 54.3 °F 49.3 °F 83% 30.18 in 10.0 mi Calm Calm - N/A   Unknown
9:55 PM 52.9 °F 49.6 °F 89% 30.20 in 10.0 mi Calm Calm - N/A   Unknown
10:15 PM 52.3 °F 50.0 °F 92% 30.20 in 10.0 mi Calm Calm - N/A   Unknown
10:35 PM 51.3 °F 49.3 °F 93% 30.20 in 10.0 mi Calm Calm - N/A   Unknown
10:55 PM 51.3 °F 49.5 °F 94% 30.19 in 10.0 mi Calm Calm - N/A   Unknown
11:15 PM 50.9 °F 49.1 °F 94% 30.18 in 10.0 mi NNW 3.5 mph - N/A   Unknown
11:35 PM 50.2 °F 49.1 °F 96% 30.18 in 10.0 mi Calm Calm - N/A   Unknown
11:55 PM 50.4 °F 49.5 °F 97% 30.17 in 10.0 mi Calm Calm - N/A   Unknown